[[{"header":{"parameterUnit":"m.s-1","parameterCategory":2,"la1":30.2992,"la2":30.254,"lo1":-89.0895,"lo2":-89.0443,"dy":0.0025,"dx":0.0025,"nx":19,"ny":19,"refTime":"2026-03-09T03:00:00:Z","depth":"0","parameterNumber":2,"parameterNumberName":"U-component_of_CURRENTS"},"data":[0,0,0,-0.2421,-0.2419,-0.2317,-0.2317,-0.2208,-0.2207,0,0,0,0,0,0,0,0,0,0,0,-0.244,-0.2439,-0.2421,-0.2419,-0.2317,-0.2317,-0.2208,-0.2207,0,0,0,0,0,0,0,0,0,0,0,-0.2441,-0.2439,-0.2438,-0.2418,-0.2317,-0.2317,-0.2208,-0.228,0,0,0,0,0,0,0,0,0,0,-0.2376,-0.2399,-0.2439,-0.2438,-0.2418,-0.2317,-0.2316,-0.2283,-0.2275,-0.226,0,-0.2227,0,-0.2221,-0.22,-0.22,0,0,0,-0.2418,-0.2405,-0.2371,-0.2437,-0.2417,-0.2317,-0.2363,-0.2278,-0.227,-0.225,-0.2226,-0.2222,-0.2219,-0.22,-0.2199,-0.2005,-0.2003,0,0,-0.2424,-0.2432,-0.2377,-0.2365,-0.2368,-0.2366,-0.236,-0.2273,-0.2259,-0.2225,-0.2219,-0.2218,-0.2199,-0.2198,-0.2006,-0.2004,0,0,0,-0.244,-0.2436,-0.2403,-0.2369,-0.2352,-0.2363,-0.2356,-0.2263,-0.2249,-0.2218,-0.2216,-0.2198,-0.2197,-0.2008,-0.2006,-0.1982,0,0,0,-0.2444,-0.2446,-0.2405,-0.2411,-0.2354,-0.2306,-0.2348,-0.2254,-0.2245,-0.2217,-0.2198,-0.2196,-0.2009,-0.2007,-0.1986,-0.1998,0,0,0,-0.2449,-0.2447,-0.2426,-0.2411,-0.2369,-0.2308,-0.2289,-0.2252,-0.2244,-0.22,-0.2196,-0.201,-0.2007,-0.199,-0.2002,-0.1989,0,0,0,-0.2474,-0.239,-0.2426,-0.2344,-0.2369,-0.2272,-0.2289,-0.2232,-0.2191,-0.2198,-0.2009,-0.2006,-0.1991,-0.2005,-0.1992,-0.1809,-0.1783,0,0,-0.2376,-0.2379,-0.2333,-0.2362,-0.2252,-0.2287,-0.2173,-0.2144,-0.2131,-0.2043,-0.2038,-0.1985,-0.2002,-0.199,-0.1621,-0.1601,0,0,0,-0.2308,-0.2258,-0.2235,-0.2188,-0.2158,-0.2121,-0.2094,-0.2071,-0.1996,-0.2091,-0.1924,-0.1935,-0.1929,-0.1821,-0.1804,-0.169,-0.1991,-0.1991,-0.1991,-0.215,-0.2154,-0.2067,-0.2049,-0.2014,-0.1992,-0.1961,-0.1917,-0.1917,-0.1869,-0.1871,-0.1785,-0.1663,-0.165,-0.1532,-0.1806,-0.1806,-0.1806,-0.1806,-0.198,-0.1923,-0.1956,-0.1878,-0.1889,-0.1829,-0.1809,-0.1817,-0.1764,-0.1771,-0.1766,-0.1744,-0.163,-0.1511,-0.1804,-0.1804,-0.1804,-0.1805,-0.1805,-0.1853,-0.1828,-0.182,-0.1779,-0.1756,-0.1768,-0.1747,-0.1759,-0.1741,-0.1737,-0.1625,-0.1623,-0.1564,-0.1734,-0.1734,-0.1734,-0.1734,-0.1733,-0.1733,-0.1734,-0.1722,-0.1713,-0.1689,-0.1712,-0.1726,-0.1732,-0.1704,-0.1623,-0.1582,-0.158,-0.1473,-0.1763,-0.1818,-0.1733,-0.1733,-0.1733,-0.1733,-0.1733,-0.1559,-0.1634,-0.1604,-0.1632,-0.1647,-0.1543,-0.1643,-0.1468,-0.1464,-0.1362,-0.123,-0.149,-0.149,-0.15,-0.1546,-0.1396,-0.1396,-0.1396,-0.1396,-0.1502,-0.1515,-0.1526,-0.1531,-0.1523,-0.1443,-0.1181,-0.1082,-0.1006,-0.0941,-0.103,-0.097,-0.0989,-0.096,-0.0982,-0.1018,-0.0738,-0.0737,-0.0736,-0.1446,-0.1476,-0.1441,-0.143,-0.1426,-0.1231,-0.0818,-0.0519,-0.054,-0.0708,-0.0908,-0.0935,-0.0854,-0.0893,-0.0857,-0.0897,-0.096,0,0]},{"header":{"parameterUnit":"m.s-1","parameterCategory":2,"la1":30.2992,"la2":30.254,"lo1":-89.0895,"lo2":-89.0443,"dy":0.0025,"dx":0.0025,"nx":19,"ny":19,"refTime":"2026-03-09T03:00:00:Z","depth":"0","parameterNumber":3,"parameterNumberName":"V-component_of_CURRENTS"},"data":[0,0,0,-0.0192,-0.0192,-0.0135,-0.0134,-0.0014,-0.0013,0,0,0,0,0,0,0,0,0,0,0,-0.0214,-0.0214,-0.0192,-0.0192,-0.0135,-0.0134,-0.0014,-0.0013,0,0,0,0,0,0,0,0,0,0,0,-0.0214,-0.0214,-0.0214,-0.0191,-0.0135,-0.0134,-0.0014,-0.0066,0,0,0,0,0,0,0,0,0,0,-0.0126,-0.016,-0.0214,-0.0214,-0.0191,-0.0135,-0.0134,-0.0069,-0.0063,-0.003,0,-0.0032,0,-0.0023,-0.0005,-0.0004,0,0,0,-0.0178,-0.0165,-0.0149,-0.0214,-0.0191,-0.0135,-0.0157,-0.0066,-0.0059,-0.0022,-0.0031,-0.0026,-0.0021,-0.0004,-0.0004,0.0051,0.005,0,0,-0.0182,-0.0198,-0.0154,-0.0145,-0.0189,-0.0159,-0.0155,-0.0062,-0.0059,-0.003,-0.0024,-0.0019,-0.0003,-0.0002,0.0051,0.0051,0,0,0,-0.0199,-0.0201,-0.0188,-0.015,-0.0145,-0.0157,-0.0153,-0.0063,-0.0059,-0.0022,-0.0018,-0.0003,-0.0001,0.0051,0.0051,-0.0028,0,0,0,-0.0201,-0.0212,-0.019,-0.0198,-0.0148,-0.0111,-0.0157,-0.0066,-0.0055,-0.0018,-0.0003,-0.0,0.0052,0.0051,-0.0025,-0.0042,0,0,0,-0.0214,-0.0213,-0.0211,-0.0199,-0.018,-0.0113,-0.0103,-0.0063,-0.0052,-0.0004,0.0,0.0052,0.0051,-0.0023,-0.0038,0.0031,0,0,0,-0.0226,-0.0248,-0.0212,-0.0229,-0.0181,-0.0163,-0.0103,-0.0072,-0.0037,-0.0002,0.0052,0.0051,-0.0022,-0.0036,0.0032,0.0174,0.0182,0,0,-0.0265,-0.0253,-0.0263,-0.023,-0.0234,-0.0169,-0.0165,-0.0089,-0.0036,0.0028,0.0029,-0.0026,-0.0038,0.0031,0.0133,0.0143,0,0,0,-0.0283,-0.0294,-0.0286,-0.0279,-0.0245,-0.0216,-0.0148,-0.0115,-0.0063,-0.002,-0.0018,-0.0022,0.0024,0.0111,0.0118,0.0202,0.0048,0.0048,0.0048,-0.0364,-0.0342,-0.0358,-0.033,-0.0309,-0.0244,-0.0211,-0.0151,-0.0101,-0.0096,-0.0082,-0.0077,0.0011,0.0019,0.0101,-0.0085,-0.0085,-0.0085,-0.0085,-0.0433,-0.0441,-0.041,-0.0417,-0.037,-0.0354,-0.0271,-0.0231,-0.0153,-0.0143,-0.0093,0.0028,0.0022,0.0107,-0.009,-0.0089,-0.0089,-0.0088,-0.0088,-0.0484,-0.0483,-0.0484,-0.0486,-0.0469,-0.0412,-0.0326,-0.0289,-0.0207,-0.018,0.0008,0.0012,0.0092,-0.0128,-0.0128,-0.0128,-0.0128,-0.0128,-0.0127,-0.0529,-0.0529,-0.054,-0.0548,-0.0525,-0.0468,-0.036,-0.0258,-0.011,-0.0039,-0.0036,0.0112,-0.0088,-0.008,-0.0125,-0.0125,-0.0125,-0.0126,-0.0126,-0.0571,-0.0576,-0.0558,-0.0546,-0.0468,-0.0277,-0.0241,0.0037,0.0088,0.0212,0.0261,0.0071,0.0136,0.0133,0.0148,0.0166,0.0166,0.0166,0.0166,-0.0598,-0.0605,-0.0493,-0.0401,-0.0293,-0.0145,0.0261,0.0459,0.0522,0.0521,0.0423,0.0441,0.0426,0.0508,0.0496,0.0518,0.0629,0.063,0.063,-0.0618,-0.0553,-0.042,-0.0288,-0.0143,0.0116,0.0602,0.0969,0.0846,0.065,0.0507,0.0487,0.0508,0.0478,0.06,0.0577,0.0611,0,0]}],[{"header":{"parameterUnit":"m.s-1","parameterCategory":2,"la1":30.2992,"la2":30.254,"lo1":-89.0895,"lo2":-89.0443,"dy":0.0025,"dx":0.0025,"nx":19,"ny":19,"refTime":"2026-03-09T03:00:00:Z","depth":"2","parameterNumber":2,"parameterNumberName":"U-component_of_CURRENTS"},"data":[0,0,0,-0.1638,-0.1642,-0.1784,-0.1784,-0.1739,-0.1738,0,0,0,0,0,0,0,0,0,0,0,-0.1603,-0.1606,-0.1638,-0.1643,-0.1784,-0.1784,-0.1739,-0.1738,0,0,0,0,0,0,0,0,0,0,0,-0.1602,-0.1605,-0.1608,-0.1644,-0.1784,-0.1784,-0.1739,-0.1679,0,0,0,0,0,0,0,0,0,0,-0.1566,-0.1601,-0.1604,-0.1608,-0.1645,-0.1784,-0.1784,-0.1678,-0.1683,-0.1623,0,-0.1698,0,-0.1725,-0.1734,-0.1734,0,0,0,-0.1603,-0.1599,-0.1622,-0.1608,-0.1647,-0.1784,-0.1709,-0.1682,-0.1687,-0.1628,-0.1698,-0.1697,-0.1724,-0.1733,-0.1733,-0.1639,-0.1639,0,0,-0.1595,-0.1623,-0.162,-0.1628,-0.1748,-0.1705,-0.1714,-0.1687,-0.1722,-0.1698,-0.1697,-0.1723,-0.1733,-0.1732,-0.164,-0.1639,0,0,0,-0.16,-0.1619,-0.1647,-0.1628,-0.1677,-0.171,-0.172,-0.1724,-0.1733,-0.1697,-0.1723,-0.1733,-0.1732,-0.164,-0.1639,-0.1627,0,0,0,-0.1593,-0.1623,-0.1645,-0.1661,-0.1681,-0.1739,-0.1758,-0.1734,-0.1733,-0.1723,-0.1733,-0.1731,-0.1641,-0.164,-0.1629,-0.1635,0,0,0,-0.1585,-0.1622,-0.1656,-0.1662,-0.1739,-0.1741,-0.1748,-0.1735,-0.1748,-0.1734,-0.1731,-0.1641,-0.164,-0.163,-0.1637,-0.161,0,0,0,-0.1578,-0.1625,-0.1658,-0.1703,-0.1738,-0.1739,-0.1749,-0.1746,-0.1733,-0.1732,-0.1641,-0.1639,-0.1631,-0.1638,-0.1612,-0.1467,-0.1449,0,0,-0.1603,-0.163,-0.1639,-0.167,-0.1672,-0.1713,-0.1691,-0.1688,-0.1687,-0.1628,-0.1628,-0.1628,-0.1637,-0.161,-0.1395,-0.1379,0,0,0,-0.1619,-0.1625,-0.1634,-0.166,-0.1677,-0.1681,-0.1685,-0.1674,-0.1643,-0.1687,-0.1606,-0.1612,-0.1596,-0.151,-0.1498,-0.1634,-0.1634,-0.1634,-0.1634,-0.1602,-0.1598,-0.1602,-0.1601,-0.1619,-0.1634,-0.1628,-0.1609,-0.1605,-0.1586,-0.1585,-0.1535,-0.1442,-0.1431,-0.1559,-0.1559,-0.1559,-0.1559,-0.1559,-0.155,-0.1531,-0.1555,-0.155,-0.1569,-0.1556,-0.1557,-0.1563,-0.1532,-0.1542,-0.1526,-0.148,-0.1417,-0.1558,-0.1558,-0.1558,-0.1558,-0.1558,-0.1558,-0.1481,-0.148,-0.1488,-0.1494,-0.1501,-0.1524,-0.1512,-0.1531,-0.152,-0.1515,-0.1407,-0.1405,-0.1542,-0.1498,-0.1498,-0.1498,-0.1498,-0.1498,-0.1498,-0.141,-0.1423,-0.1415,-0.144,-0.1448,-0.1467,-0.1492,-0.1473,-0.1412,-0.1381,-0.138,-0.1515,-0.1517,-0.1537,-0.1496,-0.1496,-0.1497,-0.1497,-0.1497,-0.1312,-0.1345,-0.1313,-0.132,-0.1344,-0.1299,-0.138,-0.1291,-0.1279,-0.1209,-0.1292,-0.1298,-0.1288,-0.1296,-0.131,-0.1213,-0.1213,-0.1213,-0.1213,-0.1248,-0.1265,-0.1192,-0.1172,-0.1179,-0.1201,-0.1069,-0.1027,-0.104,-0.1009,-0.1019,-0.0994,-0.1009,-0.0985,-0.1,-0.1008,-0.0833,-0.0832,-0.0832,-0.118,-0.1165,-0.1067,-0.1059,-0.1073,-0.1043,-0.0865,-0.0729,-0.0691,-0.0823,-0.101,-0.1177,-0.1164,-0.1178,-0.1163,-0.1179,-0.1201,0,0]},{"header":{"parameterUnit":"m.s-1","parameterCategory":2,"la1":30.2992,"la2":30.254,"lo1":-89.0895,"lo2":-89.0443,"dy":0.0025,"dx":0.0025,"nx":19,"ny":19,"refTime":"2026-03-09T03:00:00:Z","depth":"2","parameterNumber":3,"parameterNumberName":"V-component_of_CURRENTS"},"data":[0,0,0,-0.0543,-0.0541,-0.0437,-0.0436,-0.0322,-0.0321,0,0,0,0,0,0,0,0,0,0,0,-0.0579,-0.0578,-0.0543,-0.0541,-0.0437,-0.0436,-0.0322,-0.0321,0,0,0,0,0,0,0,0,0,0,0,-0.0579,-0.0578,-0.0577,-0.054,-0.0437,-0.0436,-0.0322,-0.0395,0,0,0,0,0,0,0,0,0,0,-0.0493,-0.0511,-0.0578,-0.0577,-0.054,-0.0437,-0.0436,-0.0398,-0.039,-0.0376,0,-0.0359,0,-0.0339,-0.0314,-0.0314,0,0,0,-0.0536,-0.0517,-0.0504,-0.0577,-0.0539,-0.0437,-0.0482,-0.0394,-0.0385,-0.0365,-0.0357,-0.0353,-0.0337,-0.0313,-0.0313,-0.0221,-0.0221,0,0,-0.0542,-0.0544,-0.051,-0.0499,-0.0511,-0.0486,-0.0479,-0.0388,-0.037,-0.0357,-0.035,-0.0335,-0.0313,-0.0312,-0.0221,-0.0221,0,0,0,-0.0562,-0.0548,-0.0536,-0.0504,-0.0484,-0.0483,-0.0475,-0.0374,-0.0374,-0.0348,-0.0334,-0.0312,-0.0311,-0.0221,-0.0221,-0.0267,0,0,0,-0.0565,-0.056,-0.0539,-0.0537,-0.0486,-0.0421,-0.0463,-0.038,-0.0369,-0.0334,-0.0312,-0.031,-0.0222,-0.0221,-0.0266,-0.029,0,0,0,-0.0584,-0.0561,-0.0553,-0.0538,-0.0496,-0.0422,-0.0416,-0.0377,-0.0361,-0.0314,-0.031,-0.0222,-0.0221,-0.0265,-0.0289,-0.0256,0,0,0,-0.0585,-0.057,-0.0552,-0.0528,-0.0497,-0.0456,-0.0416,-0.0375,-0.0339,-0.0312,-0.0222,-0.0221,-0.0265,-0.0288,-0.0256,-0.0225,-0.0223,0,0,-0.0574,-0.0568,-0.0558,-0.0541,-0.0514,-0.047,-0.0426,-0.0366,-0.0322,-0.0253,-0.025,-0.0266,-0.0289,-0.0256,-0.0191,-0.0191,0,0,0,-0.0561,-0.0557,-0.0544,-0.052,-0.0487,-0.0451,-0.0391,-0.0358,-0.0296,-0.0297,-0.0241,-0.0254,-0.0232,-0.0212,-0.0211,-0.0218,-0.0218,-0.0218,-0.0218,-0.0568,-0.0557,-0.0543,-0.0524,-0.0493,-0.0433,-0.0398,-0.0338,-0.0302,-0.0281,-0.0273,-0.0256,-0.0235,-0.0234,-0.0248,-0.0248,-0.0248,-0.0248,-0.0249,-0.0581,-0.0579,-0.0556,-0.0544,-0.0509,-0.0473,-0.0396,-0.0367,-0.0298,-0.0284,-0.0259,-0.0239,-0.0236,-0.0252,-0.0251,-0.0251,-0.025,-0.025,-0.025,-0.0601,-0.0598,-0.0593,-0.0584,-0.0559,-0.0508,-0.0466,-0.0408,-0.0336,-0.0319,-0.025,-0.0249,-0.0282,-0.0293,-0.0293,-0.0293,-0.0293,-0.0293,-0.0293,-0.0629,-0.0621,-0.0646,-0.0627,-0.0631,-0.0599,-0.051,-0.0451,-0.0345,-0.0289,-0.0288,-0.027,-0.0268,-0.0282,-0.0292,-0.0292,-0.0293,-0.0293,-0.0293,-0.0655,-0.067,-0.0712,-0.0729,-0.0732,-0.0723,-0.061,-0.0453,-0.0356,-0.0291,-0.025,-0.0251,-0.0225,-0.0224,-0.0235,-0.0233,-0.0233,-0.0233,-0.0233,-0.0692,-0.0695,-0.0791,-0.0844,-0.0854,-0.0795,-0.0703,-0.0525,-0.0342,-0.0263,-0.0262,-0.0264,-0.0265,-0.0241,-0.024,-0.0251,-0.0253,-0.0253,-0.0253,-0.073,-0.0762,-0.0849,-0.0911,-0.0935,-0.0876,-0.0801,-0.0578,-0.0305,-0.0258,-0.031,-0.0225,-0.0225,-0.0228,-0.0187,-0.0187,-0.0203,0,0]}],[{"header":{"parameterUnit":"m.s-1","parameterCategory":2,"la1":30.2992,"la2":30.254,"lo1":-89.0895,"lo2":-89.0443,"dy":0.0025,"dx":0.0025,"nx":19,"ny":19,"refTime":"2026-03-09T03:00:00:Z","depth":"4","parameterNumber":2,"parameterNumberName":"U-component_of_CURRENTS"},"data":[0,0,0,-0.0958,-0.096,-0.1078,-0.1078,-0.1124,-0.1124,0,0,0,0,0,0,0,0,0,0,0,-0.0921,-0.0922,-0.0957,-0.0961,-0.1078,-0.1078,-0.1124,-0.1124,0,0,0,0,0,0,0,0,0,0,0,-0.092,-0.0922,-0.0923,-0.0961,-0.1077,-0.1078,-0.1124,-0.1059,0,0,0,0,0,0,0,0,0,0,-0.0958,-0.0946,-0.0921,-0.0923,-0.0962,-0.1077,-0.1078,-0.1057,-0.1063,-0.1043,0,-0.1076,0,-0.1101,-0.1125,-0.1125,0,0,0,-0.0954,-0.0942,-0.0969,-0.0923,-0.0963,-0.1077,-0.1023,-0.1062,-0.1068,-0.1051,-0.1077,-0.108,-0.1102,-0.1125,-0.1126,-0.1169,-0.1169,0,0,-0.0947,-0.094,-0.0965,-0.0974,-0.1011,-0.1019,-0.1027,-0.1067,-0.108,-0.1077,-0.1081,-0.1103,-0.1126,-0.1126,-0.1168,-0.1169,0,0,0,-0.0933,-0.0936,-0.0965,-0.0971,-0.1001,-0.1023,-0.1031,-0.1079,-0.1088,-0.1082,-0.1103,-0.1126,-0.1126,-0.1168,-0.1168,-0.1197,0,0,0,-0.0929,-0.0928,-0.0962,-0.0959,-0.1002,-0.1057,-0.1042,-0.1086,-0.1091,-0.1103,-0.1126,-0.1126,-0.1168,-0.1168,-0.1196,-0.1193,0,0,0,-0.0912,-0.0926,-0.0945,-0.0958,-0.1012,-0.1058,-0.107,-0.1088,-0.1104,-0.1125,-0.1126,-0.1167,-0.1168,-0.1194,-0.1191,-0.1157,0,0,0,-0.0893,-0.0935,-0.0945,-0.0997,-0.1011,-0.1073,-0.107,-0.1116,-0.1137,-0.1126,-0.1168,-0.1168,-0.1194,-0.119,-0.1157,-0.0988,0,0,0,-0.0929,-0.0939,-0.0967,-0.0979,-0.1037,-0.1055,-0.1114,-0.114,-0.1139,-0.1145,-0.1147,-0.1196,-0.1191,-0.1157,-0.1035,0,0,0,0,-0.0967,-0.0989,-0.1007,-0.1049,-0.1086,-0.1121,-0.1156,-0.1165,-0.119,-0.1159,-0.1204,-0.1199,-0.1176,-0.1078,-0.1172,-0.1172,-0.1172,-0.1172,-0.1172,-0.1,-0.1018,-0.1058,-0.1088,-0.1126,-0.1171,-0.1195,-0.1212,-0.1214,-0.123,-0.1229,-0.1231,-0.1132,-0.1244,-0.1244,-0.1244,-0.1244,-0.1245,-0.1245,-0.1028,-0.1036,-0.1077,-0.1118,-0.1154,-0.1201,-0.1236,-0.1247,-0.1253,-0.1262,-0.1239,-0.1125,-0.1248,-0.1247,-0.1247,-0.1246,-0.1246,-0.1246,-0.1246,-0.1012,-0.1015,-0.1055,-0.1106,-0.1161,-0.121,-0.1214,-0.1257,-0.1263,-0.1262,-0.1118,-0.1231,-0.1218,-0.1241,-0.1241,-0.1241,-0.1241,-0.124,-0.124,-0.096,-0.0999,-0.1018,-0.1087,-0.1114,-0.1152,-0.12,-0.1179,-0.1201,-0.1117,-0.1254,-0.1228,-0.1229,-0.1216,-0.1238,-0.1239,-0.1239,-0.1239,-0.1239,-0.0903,-0.0929,-0.0937,-0.0963,-0.1011,-0.1029,-0.1106,-0.1034,-0.099,-0.0926,-0.1024,-0.1035,-0.0995,-0.1,-0.0978,-0.093,-0.0928,-0.0926,0,-0.0846,-0.0867,-0.0833,-0.0829,-0.0832,-0.0925,-0.0832,-0.0829,-0.0844,-0.0824,-0.098,-0.1094,-0.11,-0.1059,-0.106,-0.1036,0,0,0,-0.0788,-0.0783,-0.0718,-0.0728,-0.0727,-0.0729,-0.0792,-0.0739,-0.0875,-0.0768,-0.0872,-0.0886,-0.1087,-0.1232,-0.1196,-0.1196,-0.1173,0,0]},{"header":{"parameterUnit":"m.s-1","parameterCategory":2,"la1":30.2992,"la2":30.254,"lo1":-89.0895,"lo2":-89.0443,"dy":0.0025,"dx":0.0025,"nx":19,"ny":19,"refTime":"2026-03-09T03:00:00:Z","depth":"4","parameterNumber":3,"parameterNumberName":"V-component_of_CURRENTS"},"data":[0,0,0,-0.0449,-0.0448,-0.0423,-0.0423,-0.0369,-0.0368,0,0,0,0,0,0,0,0,0,0,0,-0.0464,-0.0465,-0.0449,-0.0448,-0.0423,-0.0423,-0.0369,-0.0368,0,0,0,0,0,0,0,0,0,0,0,-0.0464,-0.0464,-0.0465,-0.0448,-0.0423,-0.0423,-0.0369,-0.0393,0,0,0,0,0,0,0,0,0,0,-0.0419,-0.0434,-0.0464,-0.0465,-0.0448,-0.0424,-0.0423,-0.0394,-0.0391,-0.0375,0,-0.0379,0,-0.037,-0.0365,-0.0364,0,0,0,-0.0445,-0.0436,-0.0433,-0.0465,-0.0448,-0.0424,-0.0434,-0.0393,-0.0389,-0.0371,-0.0378,-0.0376,-0.0369,-0.0364,-0.0364,-0.0285,-0.0284,0,0,-0.0446,-0.0452,-0.0436,-0.0432,-0.0451,-0.0435,-0.0433,-0.0391,-0.0389,-0.0378,-0.0375,-0.0368,-0.0364,-0.0363,-0.0285,-0.0285,0,0,0,-0.0453,-0.0453,-0.0452,-0.0434,-0.043,-0.0434,-0.0432,-0.0391,-0.0392,-0.0374,-0.0368,-0.0364,-0.0363,-0.0286,-0.0285,-0.0307,0,0,0,-0.0453,-0.0457,-0.0453,-0.0455,-0.0431,-0.0411,-0.0433,-0.0395,-0.039,-0.0368,-0.0363,-0.0362,-0.0286,-0.0285,-0.0308,-0.033,0,0,0,-0.0464,-0.0458,-0.0459,-0.0456,-0.0446,-0.0412,-0.041,-0.0394,-0.0385,-0.0364,-0.0362,-0.0287,-0.0286,-0.0308,-0.033,-0.032,0,0,0,-0.0464,-0.0463,-0.046,-0.0456,-0.0446,-0.0428,-0.0411,-0.04,-0.0386,-0.0363,-0.0286,-0.0285,-0.0308,-0.033,-0.032,-0.0345,0,0,0,-0.046,-0.0462,-0.046,-0.0456,-0.0446,-0.0431,-0.0402,-0.0384,-0.0358,-0.0299,-0.0297,-0.0308,-0.033,-0.032,-0.0283,0,0,0,0,-0.0457,-0.0458,-0.0454,-0.0448,-0.0436,-0.0416,-0.0391,-0.0368,-0.0323,-0.0344,-0.028,-0.0293,-0.0287,-0.0299,-0.028,-0.028,-0.028,-0.028,-0.0281,-0.0461,-0.0455,-0.0452,-0.0443,-0.043,-0.0401,-0.0379,-0.0335,-0.0316,-0.0294,-0.0291,-0.0272,-0.0283,-0.0259,-0.0259,-0.0259,-0.0259,-0.0259,-0.0259,-0.0462,-0.0462,-0.0454,-0.0452,-0.0433,-0.0412,-0.0355,-0.0338,-0.0288,-0.0275,-0.0267,-0.0296,-0.0261,-0.0261,-0.026,-0.026,-0.026,-0.026,-0.026,-0.0468,-0.0466,-0.0472,-0.0475,-0.0464,-0.0434,-0.0411,-0.0365,-0.0313,-0.0305,-0.0302,-0.0281,-0.0303,-0.0296,-0.0296,-0.0296,-0.0296,-0.0296,-0.0296,-0.0475,-0.0477,-0.0507,-0.0503,-0.052,-0.0507,-0.0452,-0.042,-0.0361,-0.033,-0.0312,-0.0284,-0.0283,-0.0303,-0.0297,-0.0297,-0.0297,-0.0297,-0.0297,-0.0481,-0.0504,-0.0547,-0.0576,-0.0605,-0.0584,-0.0529,-0.0442,-0.0408,-0.0366,-0.0331,-0.0329,-0.0324,-0.0322,-0.0344,-0.035,-0.035,-0.035,0,-0.0503,-0.051,-0.0601,-0.0662,-0.0682,-0.064,-0.0581,-0.0517,-0.0433,-0.0435,-0.0425,-0.0391,-0.0388,-0.0388,-0.0386,-0.0415,0,0,0,-0.0527,-0.0555,-0.063,-0.0697,-0.0729,-0.0638,-0.0564,-0.0533,-0.0439,-0.0395,-0.0358,-0.0356,-0.0348,-0.0299,-0.0286,-0.0285,-0.0317,0,0]}]]